Location: Emerald Hill
(17.7750°S, 31.0311°E)
Time: 06:56:46
(UTC+00:00)

Daily predictions for brighter satellites

Satellite Brightness Start Highest point End
(mag) Time Altitude Azimuth Time Altitude Azimuth Time Altitude Azimuth
Cosmos 1953 Rocket 3.6 16:17:52 10° N 16:22:17 64° E 16:26:47 10° SSE
SL-8 R/B 3.9 16:18:15 10° NNW 16:22:52 49° NE 16:27:30 10° SE
Milstar 3 Cent rocket 4.4 16:11:01 10° NW 16:23:00 31° NNE 16:29:36 10° E
Okean O Rocket 2.9 16:22:46 10° S 16:27:03 46° WSW 16:31:16 10° NNW
USA 281 3.3 16:21:55 10° SSE 16:28:24 58° ENE 16:34:48 10° N
YAOGAN 1 4.0 16:26:00 10° SE 16:28:54 17° E 16:31:47 10° NE
USA 267 3.8 16:22:51 10° SSE 16:29:21 65° SW 16:35:49 10° NW
CRYOSAT 2 4.5 16:25:59 10° NNE 16:30:45 57° E 16:35:34 10° S
Cosmos-2242 3.3 16:28:43 10° S 16:32:49 44° E 16:36:53 10° NNE
CZ-2C R/B 4.2 16:29:24 10° SE 16:34:03 26° E 16:38:45 10° NNE
Feng Yun 1-1 Rocket 4.3 16:28:37 10° SSE 16:34:16 65° ENE 16:40:00 10° N
Cosmos 1812 Rocket 4.2 16:31:08 10° SSW 16:35:35 61° W 16:39:58 10° N
GPS 2-18 Rocket1 3.6 16:32:40 10° W 16:36:38 60° S 16:40:37 10° ESE
Cosmos 1455 4.3 16:35:43 10° SSW 16:39:04 30° W 16:42:22 10° NNW
Cosmos 2322 Rocket 2.6 16:35:05 10° S 16:40:29 44° ESE 16:45:51 10° NE
ATLAS 3B CENTAUR R/B 2.3 16:37:13 10° WSW 16:41:14 71° NNW 16:48:59 13° ENE
GPS 2-15 Rocket1 3.1 16:40:29 10° W 16:45:09 90° SW 16:49:13 14° E
COSMOS 2487 4.0 16:43:00 10° NW 16:46:13 39° WSW 16:49:28 10° S
Cosmos 1340 2.8 16:43:31 10° N 16:47:11 50° E 16:50:53 10° SSE
Cosmos 1939 Rocket 2.9 16:43:01 10° S 16:47:12 89° WSW 16:51:16 10° NNW
In-Cosmos 22 Rocket 4.4 16:42:08 10° N 16:47:35 53° E 16:53:11 10° SSE
Intelsat 5-3 Rocket 3.0 16:48:08 10° SW 16:50:06 24° S 16:52:04 13° ESE
Palapa B4 Rocket 3.3 16:45:30 10° W 16:51:14 71° S 16:54:16 18° E
CZ-4 R/B 4.4 16:47:28 10° SSE 16:51:39 70° ENE 16:55:45 10° N
Helios 1A Rocket 2.9 16:50:10 10° SSE 16:54:17 58° ENE 16:58:21 10° N
ARGOS 4.4 16:54:08 10° SE 16:57:29 19° E 16:57:29 19° E
Cosmos 921 Rocket 4.0 16:56:49 10° SSE 17:00:15 24° ESE 17:00:53 23° E
Okean-O 2.6 16:56:06 10° SSE 17:00:32 62° ENE 17:04:54 10° N
Meteor 1-27 4.3 17:00:33 10° S 17:06:13 58° E 17:11:29 11° NNE
H-2A R/B 2.6 17:02:50 10° SE 17:07:33 35° E 17:12:20 10° NNE
CZ-4 R/B 1.3 17:07:05 10° SSE 17:11:14 87° ENE 17:15:14 10° N
Cosmos 2219 3.9 17:10:07 10° NNE 17:15:00 30° ENE 17:19:53 10° SE
CSL-04 Rocket 4.0 17:10:33 10° SSE 17:15:45 41° E 17:20:57 10° N
SL-16 R/B 2.7 17:10:38 10° SSW 17:16:13 59° WNW 17:21:46 10° N
Cosmos 2333 Rocket 3.7 17:21:32 10° SSE 17:25:00 19° ESE 17:25:00 19° ESE
Abrixas rocket 4.3 17:28:54 10° SSW 17:29:53 17° S 17:29:53 17° S
Nadezhda 1 Rocket 4.0 17:32:08 10° S 17:38:05 53° E 17:39:04 48° ENE
CZ-2C R/B 4.1 17:33:42 10° NNW 17:38:24 34° W 17:43:07 10° SW
Cosmos 972 Rocket 4.2 17:33:57 10° SSW 17:38:49 63° W 17:41:26 27° N
SJ-11-01 4.2 17:34:42 10° SSE 17:39:26 90° NNE 17:42:17 24° NNW
Cosmos 2360 Rocket 2.1 17:35:43 10° SSW 17:41:26 87° ESE 17:43:09 47° NNE
Cosmos 1869 3.4 17:37:47 10° S 17:41:12 67° SSW 17:41:12 67° SSW
Ariane H10+ 4.5 17:40:28 10° NW 17:41:49 12° NNW 17:41:49 12° NNW
CZ-2C R/B 3.6 17:47:05 82° NE 17:47:16 85° ESE 17:51:59 10° S
Cosmos 2058 4.3 17:43:50 10° NNW 17:47:41 38° W 17:51:36 10° SSW
Cosmos 2227 Rocket 4.1 17:53:03 16° SE 17:53:03 16° SE 17:54:11 10° SSE
Cosmos 1408 4.5 17:50:16 14° NW 17:52:57 30° W 17:56:15 10° SSW
CSL-04 Debris 4.5 17:50:58 10° S 17:56:20 65° WSW 18:01:40 10° NNW
Cosmos 1607 3.9 17:52:47 10° SSW 17:58:38 64° SE 17:58:38 64° SE
Meteor 2-2 Rocket 4.3 17:58:14 10° S 18:04:03 78° W 18:04:50 66° NNW
Cosmos 2219 Rocket 3.3 18:02:34 10° S 18:05:59 33° SSE 18:05:59 33° SSE
Cosmos 1825 4.4 18:11:13 25° SW 18:11:13 25° SW 18:13:22 10° SSW
Cosmos 1709 Rocket 4.4 18:10:46 25° NNW 18:14:27 61° W 18:20:42 10° S
Palapa 6 Rocket 4.1 18:14:38 10° WSW 18:20:52 66° SW 18:20:52 66° SW
Gbstr 26 Del rocket 4.4 18:15:04 10° NW 18:23:13 86° SW 18:25:31 52° SSE
Cosmos 2221 4.4 18:19:18 10° SSW 18:22:01 29° WSW 18:22:01 29° WSW
Cosmos 2297 Rocket 3.0 18:29:05 48° SW 18:29:05 48° SW 18:33:58 10° S
Skynet4D Del rocket 4.5 18:22:10 10° WNW 18:29:56 77° NW 18:29:56 77° NW
Centaur D-1A AC-31 3.7 18:20:19 10° NW 18:40:23 42° NNW 18:40:23 42° NNW
Milstar 3 Cent rocket 4.1 18:54:30 10° WNW 18:58:53 30° WNW 18:58:53 30° WNW
Cosmos 2333 Rocket 4.3 19:04:36 10° SW 19:07:02 23° WSW 19:07:02 23° WSW
